Terminal Aerodrome Forecast
Issued by NWS

Home | Current Version | Previous Version | Text Only | Print | Product List | Glossary On
Versions: 1 2 3 4 5 6 7 8 9 10 11 12 13
173
FTUS43 KEAX 272323
TAFMKC
TAF
KMKC 272323Z 2800/2824 VRB04KT P6SM FEW150 SCT250
     FM281600 34006KT P6SM FEW250=

USA.gov is the U.S. government's official web portal to all federal, state and local government web resources and services.